Tracking 20040 objects as of 19-Nov-2019
Live streaming from Space Station
objects crossing your sky now

THORAD AGENA D DEB

Track THORAD AGENA D DEB now!
10-day predictions


NORAD ID: 4193
Int'l Code: 1969-082BG
Perigee: 697.2 km
Apogee: 849.1 km
Inclination: 69.9 °
Period: 100.2 minutes
Semi major axis: 7144 km
RCS: 0.0571 m2 (small)
Launch date: September 30, 1969
Source: United States (US)
Launch site: AIR FORCE WESTERN TEST RANGE (AFWTR)

Note: This is SATELLITE DEBRIS
aabbcc
Your satellite tracking list
Your tracking list is empty




NASA's NSSDC Master Catalog

Two Line Element Set (TLE):
1  4193U 69082BG  19322.43560988  .00001092  00000-0  35908-3 0  9992
2  4193  69.9326 240.9693 0106333  74.7624 286.5230 14.37723904544675
Source of the keplerian elements: AFSPC